Regional Weather Roundup
Issued by NWS

Home | Current Version | Previous Version | Text Only | Print | Product List | Glossary On
Versions: 1 2 3 4 5 6 7 8 9 10 11 12 13 14 15 16 17 18 19 20 21 22 23 24 25 26 27 28 29 30 31 32 33 34 35 36 37 38 39 40 41 42 43 44 45 46 47 48 49 50
000
ASUS43 KDMX 011110
RWRIA

WEATHER ROUNDUP FOR IOWA
NATIONAL WEATHER SERVICE DES MOINES IA
600 AM CDT FRI JUL 01 2016

NOTE: "FAIR" INDICATES FEW OR NO CLOUDS BELOW 12,000 FEET WITH NO
SIGNIFICANT WEATHER AND/OR OBSTRUCTIONS TO VISIBILITY.

* - THESE STATIONS ARE NOT NWS STATIONS...THUS NOT UNDER NWS
QUALITY CONTROL.  THEY ALSO DO NOT REPORT WEATHER SUCH
AS PRECIPITATION OR FOG.

IAZ001>003-012>014-020>022-031>034-043>046-011200-
   NORTHWEST IOWA

CITY           SKY/WX    TMP DP  RH WIND       PRES   REMARKS
CARROLL *      CLEAR     55  52  88 N8        30.13R
CHEROKEE *     CLEAR     51  51  99 N7        30.16R
DENISON *      CLEAR     52  50  93 CALM      30.13R
LE MARS *      CLEAR     52  48  87 N6        30.17R
ORANGE CITY *  CLEAR     52  46  82 N7        30.16S
SHELDON *      PTCLDY    50  50 100 N5        30.16R
SIOUX CITY     CLEAR     54  48  80 NW7       30.16R
SPENCER        CLEAR     53  49  86 N8        30.16R
STORM LAKE *   CLEAR     54  52  94 N8        30.16R
$$

IAZ055>058-069>071-079>083-090>094-011200-
   SOUTHWEST IOWA

CITY           SKY/WX    TMP DP  RH WIND       PRES   REMARKS
ATLANTIC *     CLEAR     52  50  93 N3        30.13R
AUDUBON *      CLEAR     54  50  87 CALM      30.14R
CLARINDA *       N/A     55  54  94 MISG      30.15R
COUNCIL BLFS * CLEAR     55  52  88 N9        30.14R
CRESTON *      CLEAR     57  52  82 CALM      30.13R
HARLAN  *      CLEAR     52  50  93 CALM      30.18R
LAMONI         CLEAR     57  54  89 N8        30.10R
RED OAK *      CLEAR     55  52  88 CALM      30.14R
SHENANDOAH *   CLEAR     57  55  94 NW5       30.15R
$$

IAZ047>049-059>061-072>074-084-011200-
   CENTRAL IOWA

CITY           SKY/WX    TMP DP  RH WIND       PRES   REMARKS
AMES           CLEAR     55  52  89 N7        30.11R
ANKENY *         N/A    N/A N/A N/A MISG        N/A
BOONE *        CLEAR     54  50  87 N6        30.12R
DES MOINES     PTCLDY    59  55  87 N6        30.10R
KNOXVILLE *    CLEAR     61  57  88 N8        30.07R
MARSHALLTOWN   CLEAR     57  55  93 N6        30.10R
NEWTON *       CLEAR     59  57  94 N8        30.10R
PELLA *        CLEAR     58  56  94 N5        30.10R
PERRY *          N/A     55  53  95 N6        30.13R
$$

IAZ004>006-015-016-023>025-035-036-011200-
   NORTH CENTRAL IOWA

CITY           SKY/WX    TMP DP  RH WIND       PRES   REMARKS
ALGONA *       PTCLDY    52  50  93 N6        30.16R
ESTHERVILLE    CLEAR     50  49  96 N6        30.16R
FORT DODGE *   CLEAR     54  46  76 N6        30.14R
MASON CITY     CLEAR     53  51  93 N7        30.15R
FOREST CITY *    N/A     52  52 100 N7        30.14R
WEBSTER CITY * CLEAR     50  50 100 N5        30.12R
IOWA FALLS *     N/A     57  54  87 N5        30.13R
$$

IAZ007>011-017>019-026>030-037>042-050>054-066-011200-
   NORTHEAST IOWA

CITY           SKY/WX    TMP DP  RH WIND       PRES   REMARKS
CEDAR RAPIDS   CLEAR     57  56  96 N6        30.07R
CHARLES CITY * CLEAR     55  55 100 N8        30.12R
CLINTON *      CLEAR     59  57  93 N10       30.05R
DECORAH *      PTCLDY    54  54 100 N7        30.11R
DUBUQUE        CLOUDY    58  56  93 N12       30.07R
MONTICELLO *   PTCLDY    55  55 100 N8        30.07R
OELWEIN *      PTCLDY    55  54  94 N8        30.10R
WATERLOO       CLEAR     55  52  89 N5        30.10R
$$

IAZ064-065-067-068-078-011200-
   EAST CENTRAL IOWA

CITY           SKY/WX    TMP DP  RH WIND       PRES   REMARKS
DAVENPORT      CLEAR     58  56  93 N8        30.04R
IOWA CITY      CLEAR     61  56  83 N9        30.08R
MT. PLEASANT * CLEAR     63  63 100 NW6       30.06R
MUSCATINE *    CLEAR     61  57  88 NW6       30.05R
QUAD CITIES    CLEAR     64  57  78 N9        30.02R
$$

IAZ062-063-075>077-085>089-095>099-011200-
   SOUTHEAST IOWA

CITY           SKY/WX    TMP DP  RH WIND       PRES   REMARKS
BURLINGTON     CLEAR     63  62  97 N7        30.03R
FAIRFIELD *    CLEAR     59  57  94 NW8       30.07R
FORT MADISON * CLEAR     61  59  94 NW3       30.05R FOG
KEOKUK *       CLEAR     63  61  94 N6        30.03R
OSKALOOSA *      N/A     58  56  95 N7        30.09R
OTTUMWA        CLEAR     59  56  89 N9        30.08R
WASHINGTON *   CLEAR     61  59  94 N12       30.07R
$$

ABBREVIATIONS USED IN REMARKS
   TC - TEMPERATURES IN CELSIUS
  WCI - WIND CHILL INDEX
   HX - HEAT INDEX
  VSB - VISIBILITY
$$





USA.gov is the U.S. government's official web portal to all federal, state and local government web resources and services.